Terminal Aerodrome Forecast
Issued by NWS Rapid City, SD

Home | Current Version | Previous Version | Text Only | Print | Product List | Glossary Off
Versions: 1 2 3 4 5 6 7 8 9 10 11 12 13 14 15 16 17 18 19 20

000
FTUS43 KUNR 222222 AAB
TAFRAP
TAF AMD
KRAP 222222Z 2222/2318 33024G32KT P6SM BKN100
     FM230100 01010KT P6SM BKN040
     FM231000 03012KT 2SM -SN OVC015
     FM231300 03015KT 1/2SM SN OVC010=

USA.gov is the U.S. government's official web portal to all federal, state and local government web resources and services.